{"data":{"norad_id":66578,"intl_designator":"2025-268X","name":"STARLINK-35743","alt_names":[],"object_type":"PAYLOAD","status":"ACTIVE","operator":null,"country":"US","launch_date":"2025-11-21","launch_site_code":"AFETR","launch_vehicle":null,"mission":null,"orbit_class":"UNKNOWN","rcs_meters":null,"size_class":null,"mass_kg":null,"dimensions":null,"purposes":["comms"],"wikipedia_slug":null,"has_3d_model":false,"image_url":null,"decayed_at":null,"tle_current":{"epoch":"2026-09-20T21:23:02.293728Z","epoch_age_seconds":53155,"freshness":"FRESH","line1":"1 66578U 25268X   26263.89099877  .00015027  00000+0  55427-3 0  9991","line2":"2 66578  43.0037 324.6347 0002277 267.1829  92.8762 15.27590927 47814","mean_motion":15.27590927,"eccentricity":0.0002277,"inclination_deg":43.0037,"raan_deg":324.6347,"arg_perigee_deg":267.1829,"mean_anomaly_deg":92.8762,"bstar":0.00055427,"rev_number":4781,"period_min":94.266074414829,"perigee_km":481.45409224181,"apogee_km":484.57866148964,"semimajor_km":6861.1533768657,"source":"CELESTRAK","updated_at":"2026-09-21T09:00:35.973848Z"}}}